sat.trackr.live / text

‹ back to catalog

STARLINK-36064

NORAD 66899 · 2025-283X

PAYLOAD ACTIVE UNKNOWN

§ Identity

Operator
Country
US
Launch date
2025-12-04
Launch site
AFWTR
Launch vehicle
Mass (kg)
RCS (m²)

Purposes: comms

External: N2YO · Heavens-Above · Gunter

§ Orbital elements

Epoch: 2026-05-25T01:46:29.741376Z

Period
93.84 min
Inclination
53.1623°
Eccentricity
0.0001258
Mean motion
15.34473185 rev/d
Perigee alt
461.6 km
Apogee alt
463.3 km
Semi-major
6,840.6 km
B*
1.9675e-3
RAAN
29.0345°
Arg perigee
105.1206°
Mean anomaly
254.9936°
Rev number
2,754

§ Raw data

STARLINK-360641 66899U 25283X   26145.07395534  .00066849  00000+0  19675-2 0  99942 66899  53.1623  29.0345 0001258 105.1206 254.9936 15.34473185 27541

JSON: /api/v1/satellites/66899 · /tle

For live sub-satellite position, see the globe view (requires WebGL).

§ Visibility from observer

Set your observer location to see the next 7 days of passes ≥ 10°. The values pass through the URL so the page stays shareable.

No JS? Fill the form by hand. The geolocation button needs JavaScript.